CW2718 Weather Reports


Display with metric or nautical units.
time (UTC)temp
F
wind
direction
speed
MPH
gust
MPH
rain 1hr
in
rain 24hr
in
rain mn
in
humidity
%
barometer
mb
20260902015120 72 252 0.0 0.0 0.00 0.09 0.09 91 1014.3
20260902014120 72 339 0.0 0.0 0.00 0.09 0.09 91 1013.9
20260902004120 74 339 0.0 0.0 0.08 0.09 0.09 87 1012.8
20260902003120 75 295 0.0 0.0 0.08 0.09 0.09 85 1012.5
20260902002120 76 297 0.0 9.0 0.07 0.08 0.08 83 1012.7
20260902001120 78 279 0.0 14.0 0.04 0.05 0.05 80 1013.4
20260901234120 85 188 0.0 1.0 0.00 0.01 0.01 76 1011.6
20260901233120 85 188 0.0 1.0 0.00 0.01 0.01 75 1012.2
20260901232120 86 188 0.0 0.0 0.00 0.01 0.01 73 1011.6
20260901231120 86 188 0.0 0.0 0.00 0.01 0.01 73 1011.7
20260901224120 88 188 0.0 1.0 0.00 0.01 0.01 70 1011.5
20260901223120 88 188 0.0 1.0 0.00 0.01 0.01 69 1011.8
20260901222120 88 188 0.0 2.0 0.00 0.01 0.01 68 1011.8
20260901221120 89 188 0.0 3.0 0.00 0.01 0.01 67 1011.9
20260901220120 89 181 0.0 1.0 0.00 0.01 0.01 67 1011.7
20260901215120 89 182 0.0 4.0 0.00 0.01 0.01 67 1011.8
20260901214120 89 211 0.0 3.0 0.00 0.01 0.01 67 1012.0
20260901212120 89 284 0.0 6.0 0.00 0.01 0.01 67 1012.2
20260901211120 89 286 4.0 4.0 0.00 0.01 0.01 66 1011.8
20260901210120 89 271 0.0 4.0 0.00 0.01 0.01 66 1012.0
20260901204120 89 182 1.0 8.0 0.00 0.01 0.01 65 1012.2
20260901203120 90 260 3.0 12.0 0.00 0.01 0.01 65 1012.3
20260901202120 90 279 0.0 6.0 0.00 0.01 0.01 65 1012.4
20260901201120 90 219 0.0 6.0 0.00 0.02 0.01 65 1012.2
20260901200120 90 244 2.0 7.0 0.00 0.02 0.01 65 1012.5
20260901195120 90 169 0.0 7.0 0.00 0.02 0.01 65 1012.4
20260901194120 89 275 0.0 6.0 0.00 0.02 0.01 67 1012.5
20260901193120 89 254 1.0 3.0 0.00 0.02 0.01 66 1012.6
20260901192120 90 269 0.0 4.0 0.00 0.02 0.01 65 1012.7
20260901191120 90 190 0.0 3.0 0.00 0.02 0.01 65 1012.7
20260901190120 90 181 1.0 7.0 0.00 0.02 0.01 65 1012.8
20260901185120 90 186 2.0 6.0 0.00 0.02 0.01 63 1013.0
20260901184121 90 227 0.0 8.0 0.00 0.02 0.01 64 1013.1
20260901183120 90 204 0.0 2.0 0.00 0.02 0.01 64 1013.2
20260901182120 91 190 0.0 3.0 0.00 0.02 0.01 63 1013.2
20260901181120 90 182 0.0 3.0 0.00 0.02 0.01 64 1013.2
20260901180120 90 277 0.0 6.0 0.00 0.02 0.01 64 1013.2
20260901175120 90 236 0.0 2.0 0.00 0.02 0.01 65 1013.3
20260901174120 90 217 0.0 7.0 0.00 0.02 0.01 65 1013.4
20260901173120 89 254 0.0 3.0 0.00 0.02 0.01 67 1013.2
20260901172120 88 194 0.0 6.0 0.00 0.02 0.01 69 1013.2
20260901171120 86 209 0.0 3.0 0.00 0.02 0.01 72 1013.5
20260901170120 85 177 1.0 5.0 0.00 0.02 0.01 75 1013.6
20260901165120 84 171 0.0 4.0 0.00 0.02 0.01 77 1013.7
20260901164120 82 139 2.0 4.0 0.00 0.02 0.01 80 1013.9
20260901163120 81 198 0.0 2.0 0.00 0.02 0.01 82 1014.1
20260901162121 81 204 0.0 3.0 0.00 0.02 0.01 82 1014.2
20260901161120 80 193 0.0 2.0 0.00 0.02 0.01 82 1014.4
20260901155121 80 171 0.0 2.0 0.00 0.02 0.01 85 1014.3
20260901154120 79 169 0.0 4.0 0.00 0.02 0.01 85 1014.3
20260901153120 79 180 1.0 4.0 0.00 0.02 0.01 86 1014.4
20260901152120 79 283 0.0 1.0 0.00 0.02 0.01 86 1014.5
20260901151120 79 290 0.0 1.0 0.00 0.02 0.01 86 1014.6
20260901150120 79 290 0.0 4.0 0.00 0.02 0.01 85 1014.6
20260901145120 79 186 0.0 5.0 0.00 0.02 0.01 86 1014.6
20260901144121 79 182 0.0 4.0 0.00 0.02 0.01 87 1014.3
20260901143120 78 200 0.0 4.0 0.00 0.02 0.01 91 1014.4
20260901142120 77 289 0.0 2.0 0.00 0.02 0.01 93 1014.3
20260901141120 76 63 0.0 3.0 0.00 0.02 0.01 94 1014.5
20260901140120 76 262 0.0 2.0 0.00 0.02 0.01 95 1014.4
20260901135120 75 253 0.0 2.0 0.00 0.02 0.01 95 1014.4
20260901133120 74 231 0.0 0.0 0.00 0.02 0.01 95 1014.6
20260901132119 74 231 0.0 2.0 0.00 0.02 0.01 95 1014.7
20260901131120 74 184 0.0 0.0 0.00 0.02 0.01 96 1014.7
20260901130120 73 184 0.0 1.0 0.00 0.02 0.01 95 1014.5
20260901124120 73 182 0.0 0.0 0.00 0.02 0.01 96 1014.7
20260901123120 73 181 0.0 1.0 0.00 0.02 0.01 96 1014.6
20260901120120 72 182 0.0 1.0 0.00 0.02 0.01 95 1014.4
20260901115120 71 182 0.0 0.0 0.00 0.02 0.01 95 1014.7
20260901114851 70 180 0.0 0.0 0.00 0.03 0.01 94 1015.0